Showing default

TIROS 8, 716

Orbit data source: Space-Track

TIROS 8, 716 is a payload satellite owned by GSFC (US) in LEO that was launched on Sat, 21 Dec 1963 UTC via a THOR DELTA B launch vehicle from the Air Force Western Test Range (AFWTR). Payloads include a variety of satellites, spacecraft, and rockets equipped with specific instruments for various scientific and technological missions. These include communications satellites like Starlink; space stations such as the ISS; scientific satellites like the Hubble; Earth observation satellites from companies like Planet Labs, Umbra, and HawkEye 360; GPS; miniature CubeSats for education and research; and military/defense satellites.

Loading next visibility...
TIROS 8 details
Identifier
716, 1963-054A
Orbit
LEO
Last TLE update1 day ago
Origin
Flag of USGSFC (US)
ManufacturerRCA/East Windsor
MissionNon-operational Civil Weather
Bus & MotorTIROS, Unknown motor
Mass120 kg wet, 120 kg dry
Launch date (UTC)
1963-12-21 (61 years ago)
Launch vehicle
THOR DELTA B
Launch site
Air Force Western Test Range (AFWTR)
Object type
Payload
Rocket body
Debris
Shape & HBRCyl, 1.07 m
Radar Cross Section0.920 m², Medium (>0.1 m² and < 1m²)

Expand to show TLE details & history

TLE from 1 day ago
0 TIROS 8
1 00716U 63054A   25022.47350369  .00001719  00000-0  30014-3 0  9999
2 00716  58.4946 127.1570 0018534 337.4045  22.6176 14.72157124240488
Epoch: 2025-01-22T11:21Z
Definitive object data (Epoch: 2025-01-22T11:21:50.718Z)
Latitude-0.00006°
Longitude-165.36923°
Altitude643.58 km
Speed7.543 km/s
True Right ascension08h 28m 37s
True Declination0° 00' 00"
Sunlit
Object was in full shadow at TLE epoch
Visualization TLE readout
Latitude-12.24345°
Longitude17.82719°
Altitude668.618 km
Speed7.517 km/s
Apparent Right ascension23h 40m 38s
Apparent Declination-45° 02' 25"
Sunlit
Object is in daylight
Visualization observer readout
Local Sidereal Time17:09:34
Azimuth124.514° SE
Elevation-31.823°
Doppler factor1
Orbital elements
Apogee altitude666.661 km
Perigee altitude640.596 km
Semi-major axis7,031.766 km
Eccentricity0.0018534
Inclination58.4946°
RAAN127.157°
Arg. of periapsis337.4045°
True anomaly22.69945°
Mean anomaly22.6176°
Eccentric anomaly22.65851°
Mean motion3.68084 °/min
BSTAR0.00030014
Orbital period97.8 mins
Loading maneuver chart data...
Loading historical data...
Loading historical data...
Loading historical data...
Loading historical data...
Loading historical data...
Loading historical data...
Loading historical data...

TIROS 8 Visibility forecast

Observer location: undefined°, undefined

Span
Click to sort rows by Start time (UTC) header in descending order
Start Az.
Max El. time (UTC)
Max El. Az.
Max El.
End time (UTC)
End Az.
9 mins2025-01-23 17:14:05.425Z310.286° NW2025-01-23 17:18:05.425Z255.705° W39.141°2025-01-23 17:23:05.425Z155.709° SSE
5 mins2025-01-24 07:31:05.425Z151.313° SSE2025-01-24 07:33:05.425Z119.974° SE18.429°2025-01-24 07:36:05.425Z76.656° E
7 mins2025-01-24 09:11:05.425Z242.496° WSW2025-01-24 09:14:05.425Z313.112° NW39.586°2025-01-24 09:18:05.425Z31.965° NE
|